Regional Weather Roundup
Issued by NWS

Home | Current Version | Previous Version | Text Only | Print | Product List | Glossary On
Versions: 1 2 3 4 5 6 7 8 9 10 11 12 13 14 15 16 17 18 19 20 21 22 23 24 25 26 27 28 29 30 31 32 33 34 35 36 37 38 39 40 41 42 43 44 45 46 47 48 49 50
000
ASUS43 KMKX 040211
RWRWI

WISCONSIN REGIONAL WEATHER ROUNDUP
NATIONAL WEATHER SERVICE MILWAUKEE/SULLIVAN WI
800 PM CST SAT DEC 03 2016

NOTE: "FAIR" INDICATES FEW OR NO CLOUDS BELOW 12,000 FEET WITH NO
SIGNIFICANT WEATHER AND/OR OBSTRUCTIONS TO VISIBILITY.

WIZ001-002-006>008-014>016-023>028-040300-
NORTHWEST WISCONSIN

CITY           SKY/WX    TMP DP  RH WIND       PRES   REMARKS
SUPERIOR ARPT  CLOUDY    31  21  68 SW7       30.21S WCI  24
ASHLAND        CLOUDY    30  23  75 VRB6      30.22F WCI  24
HAYWARD        CLOUDY    29  20  69 S8        30.20F WCI  21
SIREN          MOCLDY    29  21  71 S7        30.20F WCI  22
CUMBERLAND     CLOUDY    27  21  80 CALM      30.19F
RICE LAKE      CLOUDY    28  21  74 SE3       30.22F
CHETEK         CLOUDY    28  22  78 SE5       30.22S WCI  23
LADYSMITH      CLOUDY    29  24  80 S5        30.23S WCI  24
EAU CLAIRE     CLOUDY    29  21  72 CALM      30.21F
MENOMONIE      CLOUDY    30  24  79 CALM      30.21F
NEW RICHMOND   CLOUDY    29  23  76 SE6       30.19F WCI  23
OSCEOLA        CLOUDY    30  23  74 SE8       30.21F WCI  23
$$

WIZ003>005-009-010-017-018-040300-
NORTH CENTRAL WISCONSIN

CITY           SKY/WX    TMP DP  RH WIND       PRES   REMARKS
MANITOWISH WTR CLOUDY    27  21  80 S6        30.18F WCI  20
ARBOR VITAE    CLOUDY    29  23  76 S3        30.19F
WOODRUFF       CLOUDY    29  23  76 S3        30.19F
RHINELANDER    CLOUDY    28  20  71 W5        30.20F WCI  23
EAGLE RIVER    CLOUDY    27  19  72 SW6       30.18F WCI  21
LAND O LAKES   CLOUDY    28  21  75 CALM      30.20F
PHILLIPS       CLOUDY    28  22  80 SW5       30.20S WCI  22
TOMAHAWK       CLOUDY    28  19  71 CALM      30.21S
MEDFORD        CLOUDY    27  22  79 S6        30.21S WCI  21
MERRILL        CLOUDY    28  22  77 SW3       30.23S
$$

WIZ029-030-035-036-043>047-040300-
CENTRAL WISCONSIN

CITY           SKY/WX    TMP DP  RH WIND       PRES   REMARKS
WAUSAU         CLOUDY    28  21  75 W7        30.22F WCI  21
MOSINEE        CLOUDY    28  25  86 CALM      30.24F
MARSHFIELD     CLOUDY    28  21  75 SE3       30.21F
STEVENS POINT  CLOUDY    27  21  76 CALM      30.25S
WAUPACA        CLOUDY    32  23  68 CALM      30.27S
WAUTOMA        CLOUDY    29  24  82 CALM      30.26F
WISC RAPIDS    CLOUDY    29  23  78 SE3       30.25F
CAMP DOUGLAS   CLOUDY    31  24  77 E3        30.22F
$$

WIZ011>013-019>022-031-037>040-048>050-040300-
NORTHEAST WISCONSIN

CITY           SKY/WX    TMP DP  RH WIND       PRES   REMARKS
ANTIGO         CLOUDY    27  20  77 CALM      30.21F
SHAWANO        CLOUDY    32  24  71 CALM      30.26S
OCONTO         CLOUDY    31  21  67 SW5       30.27S WCI  26
STURGEON BAY   CLOUDY    31  23  72 SW10      30.27F WCI  22
GREEN BAY      CLOUDY    33  26  75 CALM      30.26F
MANITOWOC      CLOUDY    32  24  72 CALM      30.28S
APPLETON       CLOUDY    30  19  64 VRB3      30.24F
CLINTONVILLE   CLOUDY    32  23  69 W5        30.25F WCI  27
OSHKOSH        CLOUDY    30  21  69 CALM      30.26S
$$

WIZ032>034-041-042-053>061-040300-
SOUTHWEST WISCONSIN

CITY           SKY/WX    TMP DP  RH WIND       PRES   REMARKS
LA CROSSE      MOCLDY    34  26  72 E6        30.23F WCI  29
SPARTA         CLOUDY    31  27  84 CALM      30.24F
VIROQUA        CLOUDY    30  26  86 SE6       30.21S WCI  24
BOSCOBEL       CLOUDY    33  26  75 CALM      30.26F
PRAIRIE DU CHI CLOUDY    33  27  77 E5        30.25S WCI  29
PLATTEVILLE    CLOUDY    32  29  90 SE5       30.25S WCI  27
$$

WIZ056-057-062-063-064-067-068-040300-
SOUTH CENTRAL WISCONSIN

CITY           SKY/WX    TMP DP  RH WIND       PRES   REMARKS
REEDSBURG      CLOUDY    31  26  81 CALM      30.24F
BARABOO/DELLS  CLOUDY    31  26  79 CALM      30.24F
LONE ROCK      CLOUDY    31  26  82 E3        30.26F
MINERAL POINT  MOCLDY    32  30  93 SE5       30.24S WCI  27
MADISON        CLOUDY    32  24  72 CALM      30.26F
MIDDLETON      MOCLDY    33  28  83 E3        30.26S
WATERTOWN      CLOUDY    30  27  88 CALM      30.27S
MONROE         PTCLDY    32  27  80 SE5       30.25S WCI  27
JANESVILLE     CLOUDY    34  28  80 VRB5      30.27S WCI  30
$$

WIZ051-052-058>065-066-070>072-040300-
SOUTHEAST WISCONSIN

CITY           SKY/WX    TMP DP  RH WIND       PRES   REMARKS
MILWAUKEE      CLOUDY    32  22  66 SW5       30.29S WCI  27
WAUKESHA       CLOUDY    28  21  74 CALM      30.29S
MILWAUKEE/TIMM CLOUDY    30  21  69 CALM      30.29F
RACINE         CLOUDY    32  23  69 CALM      30.31S
BURLINGTON     CLOUDY    31  26  80 CALM      30.28S
KENOSHA        CLOUDY    31  25  78 CALM      30.29S
FOND DU LAC    CLOUDY    30  21  69 SW3       30.27S
SHEBOYGAN      CLOUDY    31  21  66 CALM      30.27F
WEST BEND      CLOUDY    30  25  80 CALM      30.28R
JUNEAU         CLOUDY    29  24  81 SE3       30.28R
$$

LSZ147-162-040300-
LAKE SUPERIOR

STATION/POSITION TIME  TEMP    WIND        PRES    WAVE
                       AIR SEA DIR/SP/G            HT/PER
                 (UTC) (F)     (DEG/KT/KT) (MB)    (FT/S)
DEVILS ISLAND    0100   33     210/  8/ 11 1024.3F
PORT WING        0130   31     160/  2/  4 1023.4F
SAXON HARBOR     0140   32     210/  3/  5 1023.4S
$$

LMZ867-665-643>646-040300-
LAKE MICHIGAN

STATION/POSITION TIME  TEMP    WIND        PRES    WAVE
                       AIR SEA DIR/SP/G            HT/PER
                 (UTC) (F)     (DEG/KT/KT) (MB)    (FT/S)
CHAMBERS ISLAND  0140   34     200/  4/  9 1023.7F
NORTHPORT PIER   0140   33      CALM  /  4 1024.4S
SISTER BAY       0153   33     190/  7/ 10   N/A
ALGOMA LAKESHORE 0151          260/  6/  8   N/A
KEWAUNEE LAKESHO 0142   32     250/  2/  4 1024.9S
SHEBOYGAN LAKESH 0200   31     250/  4/  5 1025.8F
PORT WASHINGTON  0140   32      CALM  /  3 1026.4F
MILWAUKEE LAKESH 0150   33     250/  1/  1   N/A
S MID LAKE BUOY  0150   35 48  300/  2/  6 1026.1S   1/ 3
KENOSHA   LAKESH 0200   33      10/  4/  6 1025.7
$$

TC  - TEMPERATURE IN CELSIUS
VSB - VISIBILITY IN STATUTE MILES
WCI - WIND CHILL INDEX
HX  - HEAT INDEX




USA.gov is the U.S. government's official web portal to all federal, state and local government web resources and services.